Wind_Speed
10 10 9 8 6 8 8 8 7 6 5 4 2 2 2 3 2 2 2 3 3 4 4 5 5 5 5 5 5 5 5 5 5 5 5 5 5 4 5 5 6 5 5 6 6 6 6 7 7
8 7 8 6 7 8 8 8 7 5 4 3 2 2 2 1 1 2 3 3 3 3 3 3 3 4 4 4 4 4 4 4 4 4 4 4 4 4 4 4 5 5 5 5 5 5 5 6 6
5 5 6 4 7 8 8 7 7 6 4 4 3 3 2 1 1 2 3 4 4 4 4 3 4 4 4 4 3 4 4 4 4 4 4 4 4 4 4 4 4 5 5 5 5 5 4 5 5
3 4 3 5 6 6 7 7 7 6 5 4 4 3 3 2 3 4 5 5 6 6 5 5 5 5 5 5 5 5 4 4 4 4 4 4 4 4 4 4 5 5 5 5 5 5 4 4 4
2 3 4 5 6 6 6 7 6 6 6 6 5 4 4 5 5 6 6 7 7 7 8 8 8 7 7 7 7 6 6 6 6 6 5 5 5 5 5 5 5 5 5 5 5 5 4 4 4
3 3 4 4 6 6 7 7 7 8 8 7 7 6 6 7 7 8 8 9 9 9 10 10 10 10 10 10 9 9 9 8 8 8 7 7 7 6 6 6 6 6 6 5 5 5 4 4 4
2 2 4 6 6 7 7 8 8 9 10 10 9 8 8 9 10 10 11 11 12 12 12 13 13 13 13 13 13 13 12 11 11 10 10 9 8 8 8 8 7 7 7 6 6 5 5 4 4
4 4 6 7 7 9 10 10 10 10 11 12 12 11 11 11 12 13 14 15 15 16 15 15 16 16 15 15 15 16 16 15 14 13 13 12 11 10 10 10 9 9 9 8 7 6 6 5 5
6 6 7 9 10 12 13 12 12 13 13 14 15 15 15 15 15 16 17 18 18 19 19 19 19 19 18 19 19 18 19 18 18 17 16 15 14 14 13 12 11 11 11 10 9 8 7 7 6
8 7 9 13 15 14 15 15 15 15 15 16 17 18 18 18 19 19 20 20 21 22 22 22 22 22 22 22 22 22 21 21 21 20 20 19 18 17 16 15 14 14 13 12 11 10 9 9 8
11 11 13 15 16 16 16 18 19 19 19 20 20 21 21 21 22 23 23 24 24 25 25 25 26 26 26 25 24 24 24 24 24 24 23 23 22 20 19 18 17 16 16 15 14 13 12 11 10
13 14 16 17 18 19 19 20 21 22 23 23 23 24 24 25 26 26 27 27 28 28 28 29 29 29 29 28 28 28 28 28 27 26 24 25 24 23 21 21 20 19 18 17 17 16 15 14 13
14 16 17 19 20 21 21 22 23 24 25 26 27 27 28 29 30 30 31 31 32 32 32 32 32 32 32 32 32 31 30 31 31 30 28 26 26 25 24 24 23 22 21 20 19 18 17 16 15
17 18 19 20 21 22 23 24 25 27 28 29 30 31 31 32 33 34 34 35 35 35 36 36 36 36 35 35 35 35 33 33 32 32 31 30 29 27 26 26 26 25 23 22 21 20 20 19 18
19 21 22 22 22 24 26 26 27 28 29 30 31 32 32 33 34 35 36 37 37 37 38 38 38 38 38 38 38 37 37 36 35 34 34 33 32 31 28 28 28 28 26 25 24 22 21 21 20
20 22 22 22 23 25 28 28 28 29 30 31 31 32 32 33 34 35 36 37 38 39 39 39 39 39 39 39 39 39 40 39 38 37 35 34 33 33 31 30 30 30 29 28 27 26 24 23 22
19 21 25 26 24 27 29 29 28 29 30 31 32 33 33 34 34 35 36 36 37 38 39 39 39 40 40 40 40 39 40 40 40 39 37 37 36 34 32 32 31 30 30 29 29 29 27 25 24
19 21 25 29 28 29 30 30 30 30 31 31 32 32 33 33 33 34 34 34 34 35 36 37 37 38 39 39 40 40 41 41 40 40 40 38 38 36 35 32 31 32 32 31 30 30 29 27 27
21 23 27 29 29 30 31 30 29 29 29 29 30 30 31 32 32 31 31 31 32 32 33 34 34 35 36 38 39 39 40 40 40 40 40 39 38 38 37 35 34 33 32 32 32 31 29 28 28
22 23 27 28 28 29 30 29 27 26 26 26 27 28 29 29 29 29 29 29 30 30 31 31 31 32 33 35 36 37 38 39 38 39 39 40 39 38 38 38 36 36 34 33 34 33 31 30 29
22 23 25 28 28 26 26 26 24 23 23 24 25 26 27 27 27 28 28 27 27 27 27 28 29 30 30 31 33 34 35 36 37 37 37 38 38 37 37 38 38 36 34 34 33 33 33 32 32
23 22 23 24 24 23 22 24 22 24 24 25 26 26 26 25 25 25 25 24 25 25 25 26 26 27 27 28 29 30 31 32 33 35 36 36 36 36 37 36 37 36 35 34 34 33 33 33 32
20 20 19 19 19 18 19 22 24 24 25 25 25 25 24 23 23 22 22 22 22 22 22 23 22 23 23 24 25 26 28 29 29 30 32 33 33 35 35 35 36 36 35 35 35 35 34 33 33
17 17 16 15 15 16 18 20 24 24 24 24 24 23 22 22 22 21 21 21 20 20 20 20 20 20 20 21 21 22 23 24 25 26 27 28 29 31 32 33 35 35 35 35 36 36 35 33 33
15 15 14 13 15 16 18 20 20 21 22 22 22 22 21 21 20 20 20 20 20 19 19 19 18 18 18 18 17 17 18 19 20 22 23 24 25 27 29 30 32 33 32 34 36 36 35 35 34
13 12 10 8 7 13 15 17 18 19 19 20 21 21 21 20 19 20 20 20 20 19 19 18 17 17 16 15 15 14 13 13 14 16 18 20 22 23 25 27 29 30 31 33 34 35 35 34 34
11 9 9 8 8 10 14 16 15 17 18 19 20 20 20 20 20 20 20 20 20 19 18 18 17 16 15 14 13 12 10 10 10 11 13 15 17 19 21 23 24 26 29 30 32 33 34 34 34
9 8 8 8 8 7 11 15 17 17 18 19 19 19 20 20 21 21 20 20 20 20 19 18 17 16 16 14 13 12 10 9 8 8 9 10 12 14 16 17 19 22 24 26 27 29 30 31 32
8 7 7 8 8 9 10 13 15 16 17 18 18 19 20 21 21 21 20 20 21 20 20 19 19 18 17 16 14 13 12 10 8 7 7 8 9 10 12 14 15 17 19 21 23 25 25 25 27
8 8 8 8 9 9 10 12 14 15 17 18 18 19 20 21 21 21 21 21 21 21 21 21 20 19 18 17 16 15 15 12 10 9 7 6 6 6 7 8 10 12 14 16 18 20 22 22 23
Wind_Direction
70 70 71 69 64 60 52 52 53 56 63 67 68 81 108 130 152 182 171 156 148 139 134 132 131 134 138 140 139 139 141 144 149 156 164 170 173 177 181 191 200 207 212 216 220 228 236 243 248
62 64 64 58 57 53 46 42 40 39 41 35 28 24 57 111 187 216 212 199 190 180 170 165 163 159 158 160 158 155 154 157 159 161 168 176 180 181 183 188 195 202 208 214 221 228 236 241 244
54 53 61 42 49 42 35 31 24 23 19 11 7 8 9 342 292 259 248 239 232 226 216 207 204 199 196 193 190 185 180 180 181 180 179 183 187 188 188 189 194 202 209 214 221 227 235 240 244
42 40 36 41 39 32 23 10 6 5 355 349 347 342 325 306 283 270 265 258 252 247 243 236 232 227 224 223 221 220 216 211 208 206 203 200 198 198 200 200 201 204 209 216 221 226 233 243 250
16 15 9 17 14 9 358 346 344 339 331 329 327 328 317 302 282 273 269 265 260 257 254 251 247 244 240 238 237 236 234 231 230 228 225 223 219 214 212 213 214 215 218 223 227 231 238 244 251
6 359 355 335 343 343 334 326 324 319 313 311 313 312 306 300 289 278 271 269 267 263 261 259 256 253 250 248 247 246 243 241 240 239 237 235 233 231 228 226 225 226 227 228 231 235 237 240 252
294 297 295 302 314 309 308 309 308 306 305 305 305 304 299 295 289 282 277 273 270 267 264 262 260 259 255 252 252 251 251 250 249 246 244 243 242 241 239 237 235 235 236 237 238 240 242 244 250
270 282 288 287 293 295 299 299 301 300 299 297 296 295 294 291 286 283 280 277 273 270 267 265 263 262 259 256 255 254 252 253 253 251 249 249 248 246 245 244 242 242 242 243 244 245 245 247 249
275 276 268 277 289 291 297 296 294 296 295 293 292 292 290 287 286 283 281 279 276 273 272 270 267 264 262 260 258 256 254 253 253 252 251 249 249 249 246 246 246 246 246 246 247 248 248 249 252
275 278 272 279 287 289 292 293 294 294 293 292 290 290 288 287 286 283 281 279 277 275 273 271 269 267 265 262 259 258 257 255 254 254 252 250 250 250 250 249 248 247 248 248 249 249 249 249 250
278 277 279 285 289 292 292 294 294 295 292 292 291 290 288 288 287 285 282 281 279 276 274 273 272 270 268 268 264 260 260 261 258 255 253 250 249 249 248 249 248 248 248 249 249 248 248 248 249
285 286 288 292 294 296 295 295 296 295 293 292 290 290 290 288 286 284 282 280 279 277 275 274 273 271 270 270 269 267 263 262 260 256 257 253 249 248 248 249 249 249 248 249 251 250 250 249 249
287 290 292 293 296 297 297 298 298 296 294 292 291 290 289 287 285 284 283 281 278 276 275 275 274 273 272 271 270 269 266 264 263 258 256 256 252 250 248 247 248 249 248 248 250 251 252 251 249
290 292 294 296 297 298 298 300 299 296 295 294 292 290 288 286 286 284 284 282 280 278 276 276 275 273 272 272 271 271 268 266 264 263 259 257 254 254 252 250 249 249 249 249 250 252 252 253 251
292 295 296 298 299 300 300 301 298 297 297 295 294 293 291 289 287 286 285 283 282 280 279 278 276 274 273 273 273 272 270 269 268 266 264 259 255 255 255 252 251 249 249 249 250 252 252 253 253
295 298 299 301 302 303 303 304 302 301 299 298 297 296 294 292 289 287 285 283 282 281 280 279 277 277 275 274 274 273 272 270 270 269 266 263 261 259 258 255 254 251 248 249 250 251 252 253 253
303 305 302 303 305 306 306 307 306 304 303 301 300 298 296 294 292 290 288 286 284 282 282 280 279 278 277 276 274 273 273 270 268 267 265 262 260 258 257 256 255 254 250 250 252 252 252 251 252
300 297 296 300 308 309 309 308 307 306 304 303 302 301 300 299 296 294 292 290 288 286 284 282 280 279 277 276 274 273 272 271 268 265 264 262 258 255 253 255 255 254 251 250 251 251 250 250 251
296 296 295 299 306 308 308 308 308 307 307 306 305 304 303 302 301 299 296 294 291 289 287 285 282 279 277 275 273 272 271 270 268 265 263 260 259 255 253 253 253 255 254 251 250 251 248 248 249
295 297 297 302 306 309 310 311 311 310 312 311 310 309 308 307 304 303 301 299 297 294 290 287 285 283 279 276 273 271 270 268 266 263 261 259 257 254 253 254 254 254 255 254 253 250 247 247 248
298 299 301 306 310 310 311 314 317 319 319 318 316 315 313 311 309 307 305 304 303 300 296 292 289 286 284 279 275 272 269 267 265 263 260 257 254 254 253 253 253 253 253 253 252 250 249 249 249
301 306 307 309 312 316 321 322 328 329 327 325 324 321 319 317 315 315 313 311 309 306 303 298 295 292 289 284 279 273 269 266 265 262 259 257 255 252 252 252 251 251 251 252 253 251 249 249 250
306 310 311 312 316 320 328 328 329 332 331 331 329 328 326 325 323 323 322 318 316 313 311 308 302 298 295 290 285 277 271 267 263 260 258 256 255 254 252 250 251 251 249 252 253 252 250 248 248
311 313 313 316 329 332 331 328 329 335 335 335 336 336 335 334 334 333 331 331 328 325 322 319 313 309 305 300 293 285 276 269 265 260 258 256 255 253 252 249 248 248 248 248 250 249 248 248 248
317 321 327 335 336 323 326 327 333 336 338 341 343 343 343 342 343 342 341 340 338 334 332 329 324 319 315 311 305 296 285 275 267 262 258 256 254 251 249 248 247 246 247 247 247 246 246 247 247
326 329 331 327 310 312 328 335 342 343 346 348 349 350 352 351 349 349 349 349 347 344 342 341 338 333 330 325 318 313 300 284 273 265 261 257 255 252 250 248 247 246 247 247 247 246 246 247 248
333 337 336 331 332 329 331 349 353 352 354 355 355 357 359 358 357 357 357 358 358 358 357 355 353 352 349 346 339 331 319 303 288 278 270 263 259 254 250 249 249 249 247 246 246 247 248 248 248
343 346 346 349 353 341 337 350 357 359 358 359 1 3 4 5 7 7 8 9 9 10 9 7 6 3 2 3 1 357 349 329 309 295 284 276 270 262 254 251 250 250 248 245 244 245 247 247 247
355 358 2 5 10 2 349 358 359 3 3 5 8 10 11 12 14 16 16 16 16 16 16 15 14 14 14 14 13 10 4 356 343 327 308 293 286 275 261 255 253 250 248 247 247 246 246 247 247
12 12 12 12 12 7 4 10 5 8 9 11 13 15 16 17 18 19 19 19 19 20 21 21 21 22 22 22 23 21 18 17 14 4 347 331 312 304 285 271 257 252 248 246 246 247 248 247 247
Height
5921 5921 5920 5920 5921 5919 5918 5918 5917 5917 5917 5917 5916 5916 5916 5916 5917 5919 5917 5916 5916 5915 5915 5915 5915 5915 5915 5914 5914 5914 5913 5913 5913 5913 5913 5912 5912 5912 5912 5912 5912 5912 5912 5913 5913 5913 5914 5914 5914
5923 5923 5923 5922 5920 5920 5920 5919 5919 5919 5919 5918 5917 5917 5917 5917 5917 5917 5916 5916 5916 5916 5916 5916 5916 5915 5915 5915 5915 5915 5914 5914 5914 5913 5913 5913 5913 5913 5913 5913 5913 5913 5913 5913 5913 5913 5913 5913 5914
5924 5924 5924 5923 5921 5921 5921 5920 5920 5920 5919 5919 5919 5919 5918 5918 5918 5917 5917 5917 5917 5917 5916 5916 5916 5916 5916 5916 5916 5915 5915 5915 5914 5914 5914 5913 5913 5913 5913 5913 5913 5913 5913 5913 5913 5913 5913 5913 5913
5926 5925 5925 5924 5922 5922 5921 5921 5921 5921 5920 5920 5920 5919 5918 5918 5918 5917 5917 5917 5917 5917 5916 5916 5916 5915 5915 5915 5915 5915 5915 5915 5914 5914 5914 5914 5913 5913 5913 5913 5913 5913 5913 5913 5913 5913 5913 5913 5913
5926 5926 5924 5923 5922 5922 5922 5922 5921 5921 5920 5920 5920 5919 5918 5918 5917 5917 5916 5916 5916 5916 5916 5915 5915 5915 5915 5914 5914 5914 5914 5914 5914 5914 5914 5913 5913 5913 5913 5913 5912 5912 5912 5912 5912 5912 5912 5912 5912
5928 5926 5925 5923 5923 5923 5923 5922 5922 5921 5921 5920 5920 5919 5918 5917 5917 5916 5915 5915 5915 5915 5914 5914 5914 5913 5913 5913 5913 5913 5913 5913 5913 5913 5913 5913 5912 5912 5912 5912 5912 5912 5912 5912 5912 5912 5912 5912 5911
5929 5927 5926 5924 5924 5923 5923 5922 5922 5922 5921 5920 5919 5918 5917 5916 5915 5915 5914 5913 5913 5912 5912 5912 5911 5911 5911 5911 5911 5911 5911 5911 5911 5911 5911 5911 5911 5911 5911 5911 5911 5911 5911 5911 5911 5911 5911 5911 5911
5928 5928 5925 5923 5922 5923 5923 5922 5921 5921 5920 5919 5918 5917 5916 5915 5914 5913 5912 5911 5910 5910 5910 5909 5909 5908 5908 5908 5908 5908 5908 5908 5908 5908 5909 5909 5909 5909 5909 5909 5910 5910 5910 5910 5910 5910 5910 5910 5910
5927 5928 5924 5923 5923 5923 5922 5921 5921 5920 5919 5917 5916 5914 5913 5912 5911 5910 5909 5908 5907 5906 5906 5906 5905 5905 5905 5904 5904 5904 5904 5905 5905 5905 5905 5906 5906 5906 5907 5907 5908 5908 5908 5908 5908 5909 5909 5909 5909
5926 5926 5924 5923 5923 5922 5921 5920 5919 5918 5917 5915 5914 5912 5911 5909 5908 5907 5906 5905 5904 5903 5902 5901 5901 5901 5900 5900 5900 5900 5900 5900 5901 5901 5901 5902 5902 5903 5904 5904 5905 5905 5906 5906 5906 5907 5907 5907 5907
5924 5924 5923 5922 5921 5920 5919 5918 5916 5915 5914 5912 5910 5909 5907 5905 5904 5903 5901 5900 5899 5898 5898 5897 5896 5895 5895 5895 5894 5894 5895 5895 5896 5896 5897 5897 5898 5898 5900 5900 5901 5902 5902 5903 5903 5904 5904 5905 5905
5922 5922 5921 5920 5918 5917 5916 5915 5913 5911 5910 5908 5906 5904 5902 5901 5899 5898 5896 5895 5894 5892 5892 5891 5890 5889 5889 5889 5889 5889 5890 5890 5890 5890 5891 5892 5893 5894 5895 5896 5897 5898 5898 5899 5900 5900 5901 5902 5903
5920 5919 5918 5917 5915 5914 5913 5911 5909 5907 5905 5903 5901 5899 5897 5895 5893 5892 5890 5888 5887 5886 5885 5884 5883 5882 5882 5881 5881 5882 5883 5883 5884 5884 5885 5886 5887 5889 5890 5891 5892 5893 5894 5895 5896 5897 5898 5899 5900
5918 5917 5915 5914 5912 5910 5909 5908 5906 5902 5900 5898 5896 5893 5891 5889 5887 5885 5883 5881 5879 5878 5877 5876 5875 5875 5874 5874 5874 5874 5875 5875 5876 5877 5877 5879 5881 5883 5884 5885 5887 5888 5889 5891 5892 5893 5894 5895 5896
5915 5914 5912 5910 5909 5907 5905 5904 5900 5897 5895 5892 5889 5887 5885 5882 5879 5877 5875 5873 5871 5870 5868 5868 5867 5866 5866 5866 5866 5866 5867 5868 5869 5870 5871 5872 5874 5876 5877 5879 5881 5882 5884 5885 5887 5888 5890 5891 5892
5912 5910 5908 5906 5904 5902 5901 5898 5895 5892 5889 5886 5883 5880 5877 5875 5872 5870 5867 5865 5863 5861 5859 5858 5858 5857 5857 5857 5857 5857 5858 5859 5860 5862 5863 5865 5866 5868 5870 5872 5873 5875 5877 5879 5881 5882 5884 5886 5887
5910 5907 5903 5901 5899 5897 5895 5893 5890 5887 5883 5880 5877 5874 5870 5868 5865 5862 5859 5856 5854 5852 5851 5849 5848 5848 5847 5847 5847 5847 5848 5849 5851 5852 5854 5856 5858 5860 5862 5864 5866 5867 5870 5873 5875 5876 5878 5880 5882
5907 5905 5901 5896 5895 5893 5891 5888 5885 5881 5878 5874 5870 5867 5864 5860 5857 5854 5851 5848 5846 5844 5842 5840 5839 5838 5838 5837 5837 5837 5838 5839 5840 5842 5845 5847 5849 5852 5854 5856 5858 5860 5863 5865 5868 5870 5872 5874 5876
5905 5903 5899 5895 5893 5889 5886 5883 5880 5876 5872 5868 5865 5861 5857 5854 5850 5846 5843 5840 5838 5835 5833 5831 5830 5829 5828 5827 5826 5827 5827 5828 5830 5832 5834 5837 5839 5842 5845 5847 5850 5851 5855 5857 5860 5863 5865 5867 5870
5902 5900 5895 5892 5890 5886 5881 5877 5875 5871 5868 5864 5860 5856 5852 5848 5844 5840 5837 5833 5831 5828 5825 5823 5821 5819 5818 5817 5816 5816 5817 5818 5819 5821 5824 5826 5829 5832 5836 5839 5841 5844 5847 5849 5852 5855 5858 5860 5863
5898 5896 5892 5888 5885 5882 5878 5874 5870 5867 5863 5859 5855 5851 5847 5842 5838 5835 5831 5827 5824 5821 5818 5816 5813 5811 5809 5808 5807 5807 5807 5808 5809 5811 5813 5816 5819 5822 5826 5829 5832 5835 5838 5841 5843 5847 5850 5853 5855
5894 5892 5889 5885 5881 5877 5875 5870 5866 5863 5859 5855 5851 5847 5842 5838 5833 5829 5826 5822 5819 5815 5812 5809 5806 5804 5801 5800 5798 5798 5798 5799 5800 5801 5804 5806 5809 5812 5816 5819 5823 5826 5829 5832 5835 5839 5842 5845 5848
5890 5888 5885 5882 5878 5875 5872 5868 5864 5860 5856 5852 5848 5843 5838 5834 5830 5826 5822 5818 5814 5810 5807 5803 5800 5797 5795 5792 5791 5790 5789 5790 5791 5792 5794 5797 5799 5802 5806 5809 5813 5817 5820 5823 5827 5830 5833 5836 5839
5887 5885 5882 5879 5876 5873 5871 5868 5863 5859 5855 5850 5846 5841 5836 5831 5827 5823 5818 5814 5810 5807 5803 5799 5796 5792 5789 5787 5784 5783 5782 5782 5783 5784 5786 5788 5791 5794 5797 5800 5804 5807 5811 5815 5818 5821 5825 5828 5831
5885 5883 5879 5876 5874 5872 5870 5867 5864 5858 5854 5849 5845 5839 5834 5830 5825 5821 5817 5812 5808 5804 5800 5796 5792 5789 5785 5782 5780 5778 5777 5776 5777 5778 5779 5781 5783 5786 5789 5792 5795 5799 5802 5805 5808 5812 5816 5819 5822
5883 5881 5879 5877 5876 5872 5868 5865 5863 5858 5853 5849 5844 5839 5834 5829 5824 5820 5815 5811 5806 5802 5798 5794 5790 5786 5783 5780 5777 5775 5773 5772 5772 5773 5774 5775 5777 5779 5782 5784 5787 5790 5793 5797 5800 5803 5807 5810 5813
5881 5879 5877 5876 5873 5871 5867 5865 5862 5857 5853 5848 5843 5839 5834 5829 5824 5819 5815 5810 5806 5801 5797 5793 5789 5785 5782 5778 5775 5773 5771 5770 5769 5770 5770 5771 5772 5774 5776 5778 5780 5783 5786 5789 5791 5795 5798 5801 5805
5881 5878 5876 5874 5872 5870 5868 5864 5861 5857 5853 5849 5844 5839 5835 5830 5825 5820 5815 5811 5806 5802 5798 5794 5789 5785 5782 5779 5775 5772 5770 5769 5768 5768 5768 5769 5769 5770 5771 5773 5775 5777 5779 5781 5784 5787 5790 5793 5796
5881 5878 5876 5874 5871 5870 5867 5867 5862 5858 5854 5850 5845 5841 5836 5831 5827 5822 5817 5812 5808 5803 5799 5795 5791 5787 5783 5780 5776 5774 5771 5769 5768 5767 5767 5767 5767 5767 5767 5768 5769 5771 5773 5775 5778 5780 5782 5785 5788
5880 5878 5876 5875 5872 5870 5868 5868 5862 5859 5855 5851 5847 5842 5838 5833 5829 5824 5819 5815 5810 5806 5801 5797 5793 5789 5785 5782 5778 5775 5773 5770 5769 5767 5766 5765 5765 5764 5764 5765 5765 5766 5768 5770 5772 5774 5776 5779 5781